Flag for Brazil Weather past 2 weeks in Salvador, Bahia, Brazil

Now
75 °F

Scattered clouds.


Feels Like: 75 °F
Forecast: 73 / 83 °F
Wind: 2 mph from North

Location: Salvador Aeroporto

Current Time: Sep 21, 2014 at 7:58:06 AM

Latest Report: Sep 21, 2014 at 7:00 AM


Visibility: N/A

Pressure: 30.01 "Hg

Humidity: 83%

Dew point: 70 °F

Location of SalvadorLocation

Historic Weather in Salvador — Graph

°F

Salvador temperature yesterday

Maximum temperature yesterday: 81 °F (at 9:00 AM)
Minimum temperature yesterday: 73 °F (at 12:00 AM)
Average temperature yesterday: 77 °F

Past Weeks' High & Low Weather Summary

 TemperatureHumidityPressure
High82 °F (Sep 9, 12:00 PM)100% (Sep 7, 9:00 AM)30.18 "Hg (Sep 7, 9:00 AM)
Low37 °F (Sep 15, 8:00 AM)54% (Sep 6, 1:00 PM)29.95 "Hg (Sep 11, 3:00 PM)
Average76 °F75%30.06 "Hg
* Reported Sep 6 6:00 AM — Sep 21 6:00 AM, Salvador, Weather by CustomWeather, © 2014

Note: Actual official high and low records may vary slightly from our data, if they occured in-between our weather recording intervals... More about our weather records

Advertising

Salvador weather history for previous 24 hours

 ConditionsComfort  
Time TempWeatherWind HumidityBarometerVisibility
6:00 AM
Sep 21
72 °FScattered clouds.1 mph88%29.98 "HgN/A
5:00 AM72 °FPassing clouds.2 mph88%29.98 "HgN/A
4:00 AM72 °FPassing clouds.2 mph88%29.95 "HgN/A
3:00 AM73 °FPassing clouds.3 mph83%29.95 "HgN/A
2:00 AM73 °FPassing clouds.3 mph83%29.95 "HgN/A
1:00 AM75 °FPassing clouds.7 mph78%29.98 "HgN/A
12:00 AM75 °FPassing clouds.9 mph83%29.98 "HgN/A
11:00 PM
Sep 20
77 °FPassing clouds.12 mph79%30.01 "HgN/A
10:00 PM77 °FPassing clouds.13 mph79%30.01 "HgN/A
9:00 PM77 °FPassing clouds.14 mph79%30.01 "HgN/A
8:00 PM77 °FPassing clouds.9 mph79%30.01 "HgN/A
7:00 PM77 °FPassing clouds.13 mph79%29.98 "HgN/A
6:00 PM77 °FPassing clouds.12 mph74%29.98 "HgN/A
5:00 PM79 °FPassing clouds.14 mph70%29.98 "HgN/A
4:00 PM79 °FPassing clouds.14 mph70%29.95 "HgN/A
3:00 PM81 °FPassing clouds.15 mph66%29.95 "HgN/A
10:00 AM81 °FScattered clouds.13 mph70%30.09 "HgN/A
9:00 AM81 °FScattered clouds.12 mph70%30.09 "HgN/A
8:00 AM79 °FScattered clouds.9 mph74%30.09 "HgN/A
7:00 AM77 °FScattered clouds.10 mph74%30.07 "HgN/A
Weather by CustomWeather, © 2014

See weather overviewHow to use our weather pages